Location: Bonny Doon Airfield
(37.0704°N, 122.1252°W)
Time: 06:39:27
(UTC-07:00)

Tiangong 2 - Pass Details

Date: 09 October 2017
Orbit: 388 x 391 km, 42.8° (Epoch: 23 October)

Event Time Altitude Azimuth Distance (km) Brightness Sun altitude
Exits shadow 06:33:06 12° 267° (W) 1,329 3.1 -8.4°
Maximum altitude 06:35:59 48° 342° (NNW) 514 1.5 -7.8°
Drops below altitude 10° 06:39:06 10° 59° (ENE) 1,422 4.9 -7.2°
Sets 06:41:14 0° 65° (ENE) 2,279 6.2 -6.8°
